Miscellaneous Local Product
Issued by NWS Hastings, NE

Home | Current Version | Previous Version | Text Only | Print | Product List | Glossary Off
Versions: 1 2 3 4 5 6 7 8 9 10 11 12 13 14 15 16 17 18 19 20 21 22 23 24 25 26 27 28 29 30 31 32 33 34 35 36 37 38 39 40 41 42 43 44 45 46 47 48 49 50

728
AXUS43 KGID 162102
MISGRI

GID CWA HOURLY WEATHER ROUNDUP
NATIONAL WEATHER SERVICE HASTINGS NE
400 PM CDT WED AUG 16 2017

NOTE: "FAIR" INDICATES FEW OR NO CLOUDS BELOW 12,000 FEET WITH NO
SIGNIFICANT WEATHER AND/OR OBSTRUCTIONS TO VISIBILITY.

...SOUTH CENTRAL NEBRASKA...

CITY           SKY/WX    TMP DP  RH WIND       PRES   REMARKS
GRAND ISLAND   MOSUNNY   77  64  64 NW13      29.84F
HASTINGS       MOSUNNY   79  61  53 NW15      29.86F
KEARNEY        PTSUNNY   80  62  54 W9        29.88S
ORD            CLOUDY    73  62  68 NW20      29.86R
YORK           PTSUNNY   77  66  69 W9        29.82S
AURORA         MOSUNNY   77  64  63 W10       29.83S
LEXINGTON      MOSUNNY   79  62  56 NW14      29.90S
HOLDREGE       MOSUNNY   77  60  55 W10G17    29.89F
HEBRON         MOSUNNY   81  63  55 W12G20    29.83S

...NEBRASKA PANHANDLE...

CITY           SKY/WX    TMP DP  RH WIND       PRES   REMARKS
CHADRON        MOSUNNY   78  48  34 N12       30.01F
ALLIANCE       PTSUNNY   70  54  56 N10       30.03S
SCOTTSBLUFF    MOSUNNY   77  48  35 N13G23    30.04S
SIDNEY         PTSUNNY   76  52  43 N14G22    30.06F

...WESTERN AND NORTH CENTRAL NEBRASKA...

CITY           SKY/WX    TMP DP  RH WIND       PRES   REMARKS
VALENTINE      PTSUNNY   67  58  72 NW15      29.95S
AINSWORTH      PTSUNNY   65  61  89 NW17G25   29.94R
ONEILL         DRIZZLE   65  65  99 NW20      29.87R
BROKEN BOW     LGT RAIN  67  64  90 NW15      29.93R
IMPERIAL       MOSUNNY   79  56  45 N14       29.99S
NORTH PLATTE   LGT RAIN  66  62  87 NW14G21   29.97R
MCCOOK         PTSUNNY   76  61  59 NW10      29.93S

...EASTERN NEBRASKA...

CITY           SKY/WX    TMP DP  RH WIND       PRES   REMARKS
NORFOLK        CLOUDY    73  64  73 NW14      29.78S
SO SIOUX CITY  CLOUDY    72  68  87 W9        29.73R
TEKAMAH        CLOUDY    78  67  68 SW9       29.73R
COLUMBUS       CLOUDY    73  67  81 NW10      29.80S
ALBION         CLOUDY    76  66  72 NW13      29.82S
OMAHA EPPLEY   MOSUNNY   83  65  54 SW14G24   29.75R
OFFUTT AFB     MOSUNNY   84  63  49 W16G25    29.75R
MILLARD        PTSUNNY   82  67  61 W10G20    29.76S
LINCOLN        MOSUNNY   82  64  54 W17       29.79S
NEBRASKA CITY  MOSUNNY   82  66  58 SW15      29.79S
BEATRICE       MOSUNNY   82  64  54 W15       29.81S
FALLS CITY     PTSUNNY   82  66  58 W14       29.79S

...NORTHERN KANSAS...

CITY           SKY/WX    TMP DP  RH WIND       PRES   REMARKS
GOODLAND       MOSUNNY   79  55  43 NW15G23   30.00S
HILL CITY      MOSUNNY   82  62  50 NW15      29.91F
NORTON         PTCLDY    79  54  41 W12       29.91S
PHILLIPSBURG   MOSUNNY   84  57  39 NW10G17   29.89S
SMITH CENTER   MOSUNNY   81  63  54 NW13      29.87F
HAYS           SUNNY     82  62  50 NW9G17    29.90F
RUSSELL        MOSUNNY   83  59  44 NW14G24   29.87F
CONCORDIA      MOSUNNY   83  64  52 W13G18    29.84F
SALINA         CLOUDY    82  63  52 NW7       29.86F
TOPEKA         CLOUDY    82  71  69 W9        29.81F



USA.gov is the U.S. government's official web portal to all federal, state and local government web resources and services.